Location: Pandora
(40.9481°N, 83.9611°W)
Time: 07:49:05
(UTC-04:00)

Envisat - Pass Details

Date: 24 September 2021
Orbit: 764 x 766 km, 98.2° (Epoch: 23 October)

Event Time Altitude Azimuth Distance (km) Brightness Sun altitude
Rises 05:36:48 0° 30° (NNE) 3,238 7.0 -21.0°
Reaches altitude 10° 05:39:49 10° 48° (NE) 2,306 6.4 -20.5°
Maximum altitude 05:43:18 18° 92° (E) 1,789 5.8 -19.9°
Drops below altitude 10° 05:46:46 10° 135° (SE) 2,294 5.8 -19.2°
Sets 05:49:45 0° 154° (SSE) 3,214 6.4 -18.7°
